Weather History for Stevens Point, WI

Change the Weather History Date:

Thursday, January 23, 2014

  Actual Average Record
Temperature  
Mean Temperature -6 °F -  
Max Temperature 0 °F 28 °F 53 °F (1964)
Min Temperature -12 °F 10 °F -33 °F (1963)
Degree Days  
Heating Degree Days 71    
Moisture  
Dew Point -14 °F    
Average Humidity 68    
Maximum Humidity 79    
Minimum Humidity 58    
Precipitation  
Precipitation 0.00 in - - ()
Sea Level Pressure  
Sea Level Pressure 30.40 in    
Wind  
Wind Speed 9 mph (West)    
Max Wind Speed 14 mph    
Max Gust Speed 20 mph    
Visibility 10 miles    
Events      
Averages and records for this station are not official NWS values.
T = Trace of Precipitation, MM = Missing Value Source: NWS Daily Summary

Daily Weather History Graph

Daily Weather History Graph

Search for Another Location

Airport:

Trip Planner

Search our weather history database for the weather conditions in past years. The results will help you decide how hot, cold, wet, or windy it might be!

Date:

Astronomy

Jan. 23, 2014 Rise Set
Actual Time 7:25 AM CST 4:54 PM CST
Civil Twilight 6:53 AM CST 5:26 PM CST
Nautical Twilight 6:18 AM CST 6:02 PM CST
Astronomical Twilight 5:43 AM CST 6:36 PM CST
Moon No Moon Rise 10:42 AM CST
Length of Visible Light 10h 32m
Length of Day
9h 29m
Waning Gibbous, 55% of the Moon is Illuminated
Jan 23
Waning Gibbous
Jan 23
Last Quarter
Jan 30
New
Feb 6
First Quarter
Feb 14
Full

Hourly Weather History & Observations

Time (CST) Temp. Windchill Dew Point Humidity Pressure Visibility Wind Dir Wind Speed Gust Speed Precip Events Conditions
12:15 AM -4.9 °F -21.3 °F -11.7 °F 72% 30.17 in 10.0 mi WNW 9.2 mph - N/A   Overcast
12:35 AM -4.9 °F -24.9 °F -11.7 °F 72% 30.17 in 10.0 mi WNW 13.8 mph 19.6 mph N/A   Overcast
12:55 AM -4.9 °F -23.2 °F -11.6 °F 73% 30.18 in 10.0 mi NW 11.5 mph 16.1 mph N/A   Overcast
1:15 AM -5.1 °F -22.5 °F -11.9 °F 72% 30.18 in 10.0 mi WNW 10.4 mph - N/A   Scattered Clouds
1:35 AM -5.3 °F -22.8 °F -12.1 °F 72% 30.19 in 10.0 mi WNW 10.4 mph - N/A   Clear
1:55 AM -4.9 °F -24.1 °F -11.7 °F 72% 30.21 in 10.0 mi WNW 12.7 mph 18.4 mph N/A   Clear
2:15 AM -4.9 °F -22.3 °F -11.7 °F 72% 30.22 in 10.0 mi NW 10.4 mph 18.4 mph N/A   Clear
2:35 AM -4.9 °F -22.3 °F -11.7 °F 72% 30.23 in 10.0 mi NW 10.4 mph - N/A   Clear
2:55 AM -5.1 °F -21.5 °F -11.9 °F 72% 30.24 in 10.0 mi WNW 9.2 mph 17.3 mph N/A   Clear
3:15 AM -5.3 °F -24.6 °F -12.1 °F 72% 30.25 in 10.0 mi NW 12.7 mph 19.6 mph N/A   Clear
3:35 AM -5.3 °F -21.7 °F -12.1 °F 72% 30.26 in 10.0 mi NW 9.2 mph 17.3 mph N/A   Clear
3:55 AM -5.3 °F -19.3 °F -11.9 °F 73% 30.27 in 10.0 mi NW 6.9 mph - N/A   Clear
4:15 AM -4.9 °F -20.1 °F -11.6 °F 73% 30.28 in 10.0 mi NW 8.1 mph - N/A   Clear
4:35 AM -4.5 °F -19.7 °F -11.4 °F 72% 30.30 in 10.0 mi NW 8.1 mph - N/A   Clear
4:55 AM -4.9 °F -20.1 °F -11.6 °F 73% 30.32 in 10.0 mi WNW 8.1 mph - N/A   Clear
5:15 AM -5.4 °F -20.8 °F -12.1 °F 73% 30.33 in 10.0 mi NW 8.1 mph - N/A   Clear
5:35 AM -6.0 °F -16.9 °F -12.3 °F 74% 30.34 in 10.0 mi WNW 4.6 mph - N/A   Clear
5:55 AM -6.9 °F -19.7 °F -13.0 °F 75% 30.36 in 10.0 mi WNW 5.8 mph - N/A   Clear
6:15 AM -7.6 °F -16.5 °F -13.2 °F 77% 30.38 in 10.0 mi WNW 3.5 mph - N/A   Clear
6:35 AM -8.1 °F -21.2 °F -13.5 °F 77% 30.39 in 10.0 mi WNW 5.8 mph - N/A   Clear
6:55 AM -8.7 °F -21.9 °F -14.1 °F 77% 30.40 in 10.0 mi WNW 5.8 mph - N/A   Clear
7:15 AM -8.9 °F -22.1 °F -14.1 °F 78% 30.42 in 10.0 mi WNW 5.8 mph - N/A   Clear
7:35 AM -9.4 °F -22.7 °F -14.3 °F 79% 30.42 in 10.0 mi WNW 5.8 mph - N/A   Clear
7:55 AM -8.9 °F -22.1 °F -14.1 °F 78% 30.43 in 10.0 mi WNW 5.8 mph - N/A   Clear
8:15 AM -8.0 °F -21.0 °F -13.7 °F 76% 30.44 in 10.0 mi WNW 5.8 mph - N/A   Clear
8:35 AM -7.1 °F -23.9 °F -13.0 °F 75% 30.45 in 10.0 mi NW 9.2 mph - N/A   Clear
8:55 AM -5.8 °F -22.4 °F -12.5 °F 73% 30.45 in 10.0 mi NW 9.2 mph 16.1 mph N/A   Clear
9:15 AM -4.9 °F -18.8 °F -11.7 °F 72% 30.47 in 10.0 mi WNW 6.9 mph - N/A   Scattered Clouds
9:35 AM -3.3 °F -19.3 °F -11.2 °F 69% 30.48 in 10.0 mi NW 9.2 mph - N/A   Mostly Cloudy
9:55 AM -2.9 °F -17.7 °F -11.0 °F 68% 30.48 in 10.0 mi NW 8.1 mph - N/A   Overcast
10:15 AM -2.6 °F -16.0 °F -11.2 °F 67% 30.48 in 10.0 mi WNW 6.9 mph - N/A   Mostly Cloudy
10:35 AM -1.3 °F -14.5 °F -10.5 °F 65% 30.49 in 10.0 mi NW 6.9 mph - N/A   Mostly Cloudy
10:55 AM -0.9 °F -15.3 °F -10.5 °F 64% 30.50 in 10.0 mi WNW 8.1 mph - N/A   Mostly Cloudy
11:15 AM -0.4 °F -13.4 °F -10.5 °F 62% 30.50 in 10.0 mi WNW 6.9 mph - N/A   Scattered Clouds
11:35 AM 0.5 °F -14.6 °F -10.3 °F 60% 30.49 in 10.0 mi West 9.2 mph - N/A   Scattered Clouds
11:55 AM 0.7 °F -14.4 °F -10.5 °F 59% 30.49 in 10.0 mi NW 9.2 mph - N/A   Scattered Clouds
12:15 PM 0.9 °F -15.1 °F -10.7 °F 58% 30.49 in 10.0 mi WSW 10.4 mph - N/A   Scattered Clouds
12:35 PM -0.8 °F -18.9 °F -11.9 °F 59% 30.49 in 10.0 mi West 12.7 mph 17.3 mph N/A   Clear
12:55 PM -0.6 °F -16.0 °F -11.7 °F 59% 30.49 in 10.0 mi West 9.2 mph 17.3 mph N/A   Clear
1:15 PM -1.3 °F -17.8 °F -12.1 °F 60% 30.49 in 10.0 mi West 10.4 mph - N/A   Clear
1:35 PM -0.9 °F -16.4 °F -11.9 °F 60% 30.49 in 10.0 mi West 9.2 mph - N/A   Clear
1:55 PM -0.6 °F -16.0 °F -11.7 °F 59% 30.49 in 10.0 mi West 9.2 mph - N/A   Clear
2:15 PM -1.3 °F -19.6 °F -12.3 °F 60% 30.49 in 10.0 mi West 12.7 mph 16.1 mph N/A   Clear
2:35 PM -1.3 °F -15.7 °F -12.5 °F 59% 30.49 in 10.0 mi West 8.1 mph 16.1 mph N/A   Clear
2:55 PM -1.5 °F -17.1 °F -12.8 °F 59% 30.49 in 10.0 mi West 9.2 mph 16.1 mph N/A   Clear
3:15 PM -1.8 °F -16.4 °F -13.0 °F 59% 30.49 in 10.0 mi West 8.1 mph - N/A   Clear
3:35 PM -2.6 °F -19.4 °F -13.5 °F 60% 30.49 in 10.0 mi West 10.4 mph - N/A   Clear
3:55 PM -2.4 °F -17.1 °F -13.0 °F 61% 30.50 in 10.0 mi West 8.1 mph - N/A   Clear
4:15 PM -2.9 °F -18.8 °F -13.2 °F 62% 30.50 in 10.0 mi West 9.2 mph 18.4 mph N/A   Clear
4:35 PM -3.5 °F -17.1 °F -13.5 °F 62% 30.49 in 10.0 mi West 6.9 mph - N/A   Clear
4:55 PM -4.4 °F -18.2 °F -14.1 °F 63% 30.49 in 10.0 mi West 6.9 mph - N/A   Clear
5:15 PM -4.9 °F -18.8 °F -14.8 °F 62% 30.49 in 10.0 mi West 6.9 mph - N/A   Clear
5:35 PM -5.3 °F -17.8 °F -15.0 °F 63% 30.48 in 10.0 mi West 5.8 mph - N/A   Clear
5:55 PM -5.8 °F -16.7 °F -15.3 °F 63% 30.48 in 10.0 mi West 4.6 mph - N/A   Clear
6:15 PM -6.0 °F -18.6 °F -15.7 °F 63% 30.48 in 10.0 mi West 5.8 mph - N/A   Clear
6:35 PM -6.7 °F -19.5 °F -16.1 °F 64% 30.48 in 10.0 mi West 5.8 mph - N/A   Clear
6:55 PM -7.2 °F -23.0 °F -17.0 °F 63% 30.47 in 10.0 mi West 8.1 mph - N/A   Clear
7:15 PM -7.6 °F -25.7 °F -17.9 °F 61% 30.46 in 10.0 mi West 10.4 mph 17.3 mph N/A   Clear
7:35 PM -8.3 °F -23.0 °F -18.4 °F 61% 30.46 in 10.0 mi West 6.9 mph - N/A   Clear
7:55 PM -9.0 °F -22.3 °F -18.6 °F 63% 30.45 in 10.0 mi WSW 5.8 mph - N/A   Clear
8:35 PM -10.3 °F -21.9 °F -18.8 °F 66% 30.43 in 10.0 mi WSW 4.6 mph - N/A   Clear
8:39 PM -11.2 °F -24.8 °F -18.4 °F 70% 30.43 in 10.0 mi WSW 5.8 mph - N/A   Clear
8:55 PM -11.2 °F -23.0 °F -19.5 °F 67% 30.42 in 10.0 mi WSW 4.6 mph - N/A   Clear
9:15 PM -11.4 °F -23.2 °F -19.5 °F 67% 30.41 in 10.0 mi WSW 4.6 mph - N/A   Clear
9:55 PM -11.6 °F -28.3 °F -19.5 °F 68% 30.39 in 10.0 mi WSW 8.1 mph - N/A   Clear
10:15 PM -12.1 °F -28.9 °F -19.5 °F 70% 30.38 in 10.0 mi WSW 8.1 mph - N/A   Clear
10:35 PM -12.3 °F -30.4 °F -19.3 °F 71% 30.37 in 10.0 mi WSW 9.2 mph - N/A   Clear
10:55 PM -12.5 °F -29.3 °F -19.3 °F 72% 30.35 in 10.0 mi WSW 8.1 mph - N/A   Clear
11:15 PM -12.5 °F -29.3 °F -19.3 °F 72% 30.34 in 10.0 mi WSW 8.1 mph - N/A   Clear
11:35 PM -12.6 °F -26.6 °F -19.1 °F 73% 30.32 in 10.0 mi SW 5.8 mph - N/A   Clear
11:55 PM -12.6 °F -28.2 °F -18.6 °F 75% 30.29 in 10.0 mi SW 6.9 mph - N/A   Clear